Hourly Data Report for January 24, 2019

TORONTO CITY
ONTARIO
Current Station Operator: ECCC - MSC

43°40'00.000" N
79°24'00.000" W
112.50 m
6158355
71508
XTO

Download Data

Hourly Data (January 2019)
Hourly Data Report for January 24, 2019
TIME
LST
Temp Definition
°C
Dew Point Definition
°C
Rel Hum Definition
%
Precip. Amount Definition
mm

Wind Dir Definition
10's deg

Wind Spd Definition
km/h
Visibility Definition
km
Stn Press Definition
kPa
Hmdx Definition


Wind Chill Definition


Weather Definition


00:00 4.7 3.8 94 0.0 LegendMM LegendMM   98.75     LegendNANA
01:00 4.1 2.8 91 0.0 LegendMM LegendMM   98.76     LegendNANA
02:00 3.4 1.5 88 0.5 LegendMM LegendMM   98.75     LegendNANA
03:00 1.9 0.2 89 0.8 LegendMM LegendMM   98.74     LegendNANA
04:00 1.4 -0.1 90 0.3 LegendMM LegendMM   98.73     LegendNANA
05:00 0.6 -0.5 92 1.3 LegendMM LegendMM   98.74     LegendNANA
06:00 0.5 -0.4 94 1.0 LegendMM LegendMM   98.76     LegendNANA
07:00 0.8 -0.2 93 0.2 LegendMM LegendMM   98.75     LegendNANA
08:00 0.5 -2.2 82 0.0 LegendMM LegendMM   98.85     LegendNANA
09:00 0.0 -3.6 77 0.0 LegendMM LegendMM   98.85     LegendNANA
10:00 0.0 -4.2 73 0.0 LegendMM LegendMM   98.86     LegendNANA
11:00 -0.1 -4.6 72 0.0 LegendMM LegendMM   98.83     LegendNANA
12:00 -0.2 -4.2 74 0.0 LegendMM LegendMM   98.86     LegendNANA
13:00 0.2 -5.9 63 0.0 LegendMM LegendMM   98.88     LegendNANA
14:00 0.4 -6.9 58 0.0 LegendMM LegendMM   98.89     LegendNANA
15:00 0.6 -6.2 60 0.0 LegendMM LegendMM   98.93     LegendNANA
16:00 0.1 -6.8 60 0.0 LegendMM LegendMM   98.94     LegendNANA
17:00 -0.3 -6.8 61 0.0 LegendMM LegendMM   99.01     LegendNANA
18:00 -0.6 -6.0 67 0.0 LegendMM LegendMM   99.10     LegendNANA
19:00 -0.9 -5.6 71 0.0 LegendMM LegendMM   99.19     LegendNANA
20:00 -1.3 -7.0 65 0.0 LegendMM LegendMM   99.23     LegendNANA
21:00 -1.5 -7.4 64 0.0 LegendMM LegendMM   99.27     LegendNANA
22:00 -1.5 -7.2 65 0.0 LegendMM LegendMM   99.29     LegendNANA
23:00 -2.1 -6.8 71 0.0 LegendMM LegendMM   99.27     LegendNANA

Notes on Data Quality.

Legend

  • E = Estimated
  • M = Missing
  • NA = Not Available*
  • [empty] = Indicates an unobserved value
Date modified: